sat.trackr.live / text

‹ back to catalog

STARLINK-37312

NORAD 68676 · 2026-077Q

PAYLOAD ACTIVE UNKNOWN

§ Identity

Operator
Country
US
Launch date
2026-04-11
Launch site
AFWTR
Launch vehicle
Mass (kg)
RCS (m²)

Purposes: comms

External: N2YO · Heavens-Above · Gunter

§ Orbital elements

Epoch: 2026-09-19T09:05:55.037472Z

Period
93.91 min
Inclination
97.2837°
Eccentricity
0.0001895
Mean motion
15.33443709 rev/d
Perigee alt
464.3 km
Apogee alt
466.8 km
Semi-major
6,843.7 km
B*
3.8251e-4
RAAN
132.3298°
Arg perigee
89.9457°
Mean anomaly
270.2003°
Rev number
2,484

§ Raw data

STARLINK-373121 68676U 26077Q   26262.37910923  .00012294  00000+0  38251-3 0  99962 68676  97.2837 132.3298 0001895  89.9457 270.2003 15.33443709 24845

JSON: /api/v1/satellites/68676 · /tle

For live sub-satellite position, see the globe view (requires WebGL).

§ Visibility from observer

Set your observer location to see the next 7 days of passes ≥ 10°. The values pass through the URL so the page stays shareable.

No JS? Fill the form by hand. The geolocation button needs JavaScript.